SWA4430 KFAT-KLAS

Flight info

Callsign SWA4430
Flight time 0h 48m
Altitude 35000
Route YOSE3 NTELL CABAB Q174 FLCHR COKTL4
Aircraft B737/M-SDE2E3FGHIRWXY/LB1

Departure

Time 2026-05-03 23:46
Airport Fresno Yosemite International Airport (KFAT)

Arrival

Time 2026-05-04 00:34
Airport Harry Reid International Airport (KLAS)
Time Latitude Longitude Altitude Speed Heading
2026-05-03 23:34 36.77224 -119.71838 341 ft 0 kts 215°
2026-05-03 23:38 36.77224 -119.71837 341 ft 1 kts 215°
2026-05-03 23:38 36.77237 -119.71827 336 ft 3 kts 202°
2026-05-03 23:38 36.77256 -119.71822 338 ft 3 kts 177°
2026-05-03 23:39 36.77275 -119.71826 338 ft 3 kts 154°
2026-05-03 23:39 36.77292 -119.71840 339 ft 3 kts 132°
2026-05-03 23:39 36.77297 -119.71847 335 ft 1 kts 125°
2026-05-03 23:40 36.77297 -119.71848 335 ft 0 kts 125°
2026-05-03 23:42 36.77296 -119.71846 338 ft 1 kts 126°
2026-05-03 23:42 36.77274 -119.71803 337 ft 10 kts 123°
2026-05-03 23:42 36.77232 -119.71725 341 ft 11 kts 126°
2026-05-03 23:43 36.77199 -119.71646 340 ft 11 kts 79°
2026-05-03 23:43 36.77203 -119.71561 336 ft 11 kts 123°
2026-05-03 23:43 36.77145 -119.71460 339 ft 17 kts 126°
2026-05-03 23:43 36.77079 -119.71344 338 ft 16 kts 126°
2026-05-03 23:44 36.77015 -119.71232 337 ft 16 kts 126°
2026-05-03 23:44 36.76964 -119.71124 338 ft 13 kts 89°
2026-05-03 23:44 36.77022 -119.71048 334 ft 10 kts 30°
2026-05-03 23:44 36.77067 -119.71073 336 ft 3 kts 305°
2026-05-03 23:45 36.77078 -119.71092 336 ft 4 kts 306°
2026-05-03 23:45 36.77143 -119.71206 335 ft 45 kts 304°
2026-05-03 23:45 36.77478 -119.71796 335 ft 118 kts 305°
2026-05-03 23:45 36.78064 -119.72816 526 ft 157 kts 305°
2026-05-03 23:46 36.78700 -119.73918 1415 ft 156 kts 304°
2026-05-03 23:46 36.79325 -119.75052 2157 ft 164 kts 304°
2026-05-03 23:46 36.80020 -119.76291 2691 ft 184 kts 306°
2026-05-03 23:46 36.80825 -119.77593 3388 ft 195 kts 315°
2026-05-03 23:47 36.82085 -119.78376 3809 ft 216 kts 352°
2026-05-03 23:47 36.83605 -119.78137 4357 ft 231 kts 21°
2026-05-03 23:47 36.85068 -119.77138 5041 ft 240 kts 31°
2026-05-03 23:47 36.86510 -119.76065 5890 ft 247 kts 32°
2026-05-03 23:48 36.88023 -119.74919 6420 ft 266 kts 33°
2026-05-03 23:48 36.89634 -119.73726 7279 ft 271 kts 32°
2026-05-03 23:48 36.91249 -119.72519 8313 ft 270 kts 33°
2026-05-03 23:48 36.92872 -119.71276 9194 ft 279 kts 35°
2026-05-03 23:49 36.94462 -119.69847 10066 ft 281 kts 48°
2026-05-03 23:49 36.95568 -119.67873 10960 ft 277 kts 69°
2026-05-03 23:49 36.96382 -119.65606 11451 ft 299 kts 71°
2026-05-03 23:49 36.97213 -119.63080 11693 ft 328 kts 72°
2026-05-03 23:50 36.98092 -119.60378 12329 ft 340 kts 71°
2026-05-03 23:50 36.98693 -119.58549 12909 ft 344 kts 71°
2026-05-03 23:50 36.99919 -119.54859 14154 ft 349 kts 71°
2026-05-03 23:50 37.00863 -119.52045 15028 ft 353 kts 71°
2026-05-03 23:51 37.01823 -119.49195 15908 ft 357 kts 70°
2026-05-03 23:51 37.02798 -119.46309 16811 ft 362 kts 70°
2026-05-03 23:51 37.03784 -119.43394 17671 ft 366 kts 70°
2026-05-03 23:51 37.04784 -119.40435 18495 ft 372 kts 70°
2026-05-03 23:52 37.05799 -119.37432 19247 ft 376 kts 70°
2026-05-03 23:52 37.06826 -119.34393 20040 ft 381 kts 70°
2026-05-03 23:52 37.07862 -119.31325 20813 ft 385 kts 70°
2026-05-03 23:52 37.08910 -119.28212 21550 ft 390 kts 70°
2026-05-03 23:53 37.09960 -119.25095 22304 ft 394 kts 70°
2026-05-03 23:53 37.11030 -119.21912 23024 ft 398 kts 70°
2026-05-03 23:53 37.12112 -119.18693 23695 ft 403 kts 70°
2026-05-03 23:53 37.13206 -119.15434 24266 ft 408 kts 70°
2026-05-03 23:54 37.14314 -119.12126 24770 ft 415 kts 70°
2026-05-03 23:54 37.15436 -119.08776 25354 ft 419 kts 70°
2026-05-03 23:54 37.16188 -119.06528 25723 ft 422 kts 69°
2026-05-03 23:54 37.17331 -119.03109 26201 ft 428 kts 69°
2026-05-03 23:55 37.18485 -118.99656 26765 ft 431 kts 69°
2026-05-03 23:55 37.19646 -118.96171 27305 ft 435 kts 69°
2026-05-03 23:55 37.20820 -118.92646 27805 ft 439 kts 69°
2026-05-03 23:55 37.22387 -118.87934 28557 ft 443 kts 69°
2026-05-03 23:56 37.23190 -118.85516 28878 ft 446 kts 69°
2026-05-03 23:56 37.24389 -118.81903 29351 ft 450 kts 69°
2026-05-03 23:56 37.25593 -118.78271 29863 ft 452 kts 69°
2026-05-03 23:56 37.26799 -118.74610 30259 ft 455 kts 70°
2026-05-03 23:57 37.27747 -118.70797 30516 ft 460 kts 79°
2026-05-03 23:57 37.28219 -118.66814 30778 ft 463 kts 86°
2026-05-03 23:57 37.28520 -118.62811 30996 ft 469 kts 87°
2026-05-03 23:57 37.28796 -118.58651 31238 ft 475 kts 87°
2026-05-03 23:58 37.29069 -118.54504 31539 ft 479 kts 87°
2026-05-03 23:58 37.29357 -118.50319 31823 ft 483 kts 87°
2026-05-03 23:58 37.29655 -118.46158 32135 ft 486 kts 86°
2026-05-03 23:58 37.29969 -118.41912 32427 ft 490 kts 86°
2026-05-03 23:59 37.30291 -118.37629 32726 ft 493 kts 86°
2026-05-03 23:59 37.30616 -118.33324 33007 ft 497 kts 87°
2026-05-03 23:59 37.30942 -118.28991 33298 ft 500 kts 87°
2026-05-03 23:59 37.31269 -118.24613 33569 ft 505 kts 87°
2026-05-04 00:00 37.31596 -118.20205 33832 ft 508 kts 87°
2026-05-04 00:00 37.31924 -118.15752 34014 ft 513 kts 87°
2026-05-04 00:00 37.32252 -118.11276 34257 ft 515 kts 87°
2026-05-04 00:00 37.32574 -118.06855 34531 ft 515 kts 87°
2026-05-04 00:01 37.32904 -118.02308 34759 ft 517 kts 87°
2026-05-04 00:01 37.33225 -117.97841 34724 ft 521 kts 87°
2026-05-04 00:01 37.33873 -117.88786 34709 ft 517 kts 87°
2026-05-04 00:02 37.34507 -117.79827 34718 ft 514 kts 88°
2026-05-04 00:02 37.35131 -117.70883 34702 ft 514 kts 88°
2026-05-04 00:03 37.35750 -117.61935 34719 ft 514 kts 88°
2026-05-04 00:03 37.36362 -117.52977 34708 ft 514 kts 88°
2026-05-04 00:04 37.36963 -117.44081 34718 ft 513 kts 88°
2026-05-04 00:04 37.37562 -117.35130 34724 ft 514 kts 88°
2026-05-04 00:05 37.37576 -117.30673 34702 ft 508 kts 102°
2026-05-04 00:05 37.36751 -117.26421 34742 ft 496 kts 117°
2026-05-04 00:05 37.35256 -117.22557 34716 ft 486 kts 131°
2026-05-04 00:05 37.33169 -117.19291 34750 ft 478 kts 141°
2026-05-04 00:06 37.28580 -117.13127 34726 ft 486 kts 141°
2026-05-04 00:06 37.23977 -117.06837 34722 ft 490 kts 141°
2026-05-04 00:07 37.19392 -117.00470 34714 ft 492 kts 141°
2026-05-04 00:07 37.14828 -116.94128 34714 ft 492 kts 141°
2026-05-04 00:08 37.10214 -116.87787 34713 ft 489 kts 144°
2026-05-04 00:08 37.07623 -116.85179 34741 ft 472 kts 155°
2026-05-04 00:08 37.04906 -116.82867 34719 ft 471 kts 157°
2026-05-04 00:09 36.99437 -116.78328 34719 ft 471 kts 157°
2026-05-04 00:09 36.93998 -116.73741 34710 ft 472 kts 157°
2026-05-04 00:10 36.88573 -116.69104 34705 ft 473 kts 157°
2026-05-04 00:10 36.85871 -116.66795 34185 ft 481 kts 157°
2026-05-04 00:10 36.83119 -116.64439 33869 ft 475 kts 157°
2026-05-04 00:11 36.80408 -116.62113 33753 ft 473 kts 157°
2026-05-04 00:11 36.77685 -116.59790 32966 ft 477 kts 157°
2026-05-04 00:11 36.74947 -116.57457 32222 ft 475 kts 156°
2026-05-04 00:11 36.72218 -116.55133 31357 ft 476 kts 156°
2026-05-04 00:12 36.69485 -116.52806 30692 ft 473 kts 156°
2026-05-04 00:12 36.66782 -116.50502 30100 ft 468 kts 156°
2026-05-04 00:12 36.64187 -116.48025 29411 ft 478 kts 144°
2026-05-04 00:12 36.61953 -116.44949 28790 ft 477 kts 139°
2026-05-04 00:13 36.59816 -116.41824 28126 ft 472 kts 138°
2026-05-04 00:13 36.57706 -116.38724 27513 ft 465 kts 138°
2026-05-04 00:13 36.55618 -116.35697 26903 ft 458 kts 138°
2026-05-04 00:13 36.53540 -116.32731 26273 ft 451 kts 138°
2026-05-04 00:14 36.51485 -116.29828 25683 ft 445 kts 138°
2026-05-04 00:14 36.49447 -116.26964 25075 ft 439 kts 137°
2026-05-04 00:14 36.47437 -116.24138 24476 ft 433 kts 137°
2026-05-04 00:14 36.45466 -116.21364 24178 ft 420 kts 137°
2026-05-04 00:15 36.43547 -116.18666 23594 ft 415 kts 136°
2026-05-04 00:15 36.41651 -116.16003 23009 ft 409 kts 136°
2026-05-04 00:15 36.39798 -116.13406 22380 ft 404 kts 136°
2026-05-04 00:15 36.37949 -116.10813 21800 ft 398 kts 136°
2026-05-04 00:16 36.36126 -116.08259 21216 ft 392 kts 136°
2026-05-04 00:16 36.34326 -116.05739 20620 ft 387 kts 136°
2026-05-04 00:16 36.32556 -116.03258 20094 ft 381 kts 135°
2026-05-04 00:16 36.30808 -116.00816 19531 ft 377 kts 135°
2026-05-04 00:17 36.29079 -115.98403 19137 ft 368 kts 135°
2026-05-04 00:17 36.27414 -115.96075 18977 ft 353 kts 135°
2026-05-04 00:17 36.25815 -115.93842 18820 ft 340 kts 135°
2026-05-04 00:17 36.24289 -115.91652 18570 ft 332 kts 133°
2026-05-04 00:18 36.22874 -115.89428 18276 ft 326 kts 132°
2026-05-04 00:18 36.21503 -115.87213 17984 ft 321 kts 131°
2026-05-04 00:18 36.20154 -115.85037 17633 ft 316 kts 131°
2026-05-04 00:18 36.18821 -115.82907 17330 ft 310 kts 132°
2026-05-04 00:19 36.17511 -115.80824 17209 ft 302 kts 132°
2026-05-04 00:19 36.16215 -115.78774 16963 ft 303 kts 131°
2026-05-04 00:19 36.14902 -115.76705 16713 ft 310 kts 133°
2026-05-04 00:19 36.13687 -115.74503 16403 ft 319 kts 121°
2026-05-04 00:20 36.12801 -115.71920 16116 ft 323 kts 115°
2026-05-04 00:20 36.12022 -115.69345 15816 ft 323 kts 114°
2026-05-04 00:20 36.11261 -115.66763 15537 ft 316 kts 115°
2026-05-04 00:20 36.10508 -115.64230 15215 ft 312 kts 114°
2026-05-04 00:21 36.09757 -115.61735 14920 ft 307 kts 115°
2026-05-04 00:21 36.09008 -115.59279 14631 ft 305 kts 115°
2026-05-04 00:21 36.08256 -115.56830 14352 ft 304 kts 115°
2026-05-04 00:21 36.07503 -115.54386 14069 ft 304 kts 115°
2026-05-04 00:22 36.06747 -115.51936 13779 ft 304 kts 115°
2026-05-04 00:22 36.05991 -115.49487 13482 ft 305 kts 115°
2026-05-04 00:22 36.05234 -115.47042 13171 ft 305 kts 115°
2026-05-04 00:22 36.04475 -115.44595 12849 ft 305 kts 116°
2026-05-04 00:23 36.03727 -115.42185 12563 ft 303 kts 115°
2026-05-04 00:23 36.02973 -115.39757 12262 ft 301 kts 116°
2026-05-04 00:23 36.02227 -115.37350 11975 ft 299 kts 116°
2026-05-04 00:23 36.01573 -115.34919 11682 ft 301 kts 105°
2026-05-04 00:24 36.01373 -115.32333 11419 ft 301 kts 98°
2026-05-04 00:24 36.01274 -115.29749 11161 ft 301 kts 97°
2026-05-04 00:24 36.01179 -115.27163 10882 ft 300 kts 98°
2026-05-04 00:24 36.01073 -115.24585 10589 ft 300 kts 98°
2026-05-04 00:25 36.00958 -115.22015 10311 ft 299 kts 98°
2026-05-04 00:25 36.00838 -115.19471 10032 ft 294 kts 98°
2026-05-04 00:25 36.00716 -115.16969 9750 ft 288 kts 98°
2026-05-04 00:25 36.00596 -115.14541 9458 ft 278 kts 98°
2026-05-04 00:26 36.00480 -115.12235 9185 ft 268 kts 99°
2026-05-04 00:26 36.00366 -115.09975 8926 ft 259 kts 99°
2026-05-04 00:26 36.00255 -115.07797 8677 ft 251 kts 98°
2026-05-04 00:26 36.00146 -115.05670 8456 ft 247 kts 98°
2026-05-04 00:27 36.00036 -115.03551 8245 ft 248 kts 99°
2026-05-04 00:27 35.99928 -115.01435 8052 ft 245 kts 98°
2026-05-04 00:27 35.99890 -114.99321 7965 ft 249 kts 95°
2026-05-04 00:27 35.99879 -114.97108 7464 ft 257 kts 95°
2026-05-04 00:28 35.99887 -114.94910 7085 ft 255 kts 90°
2026-05-04 00:28 36.00384 -114.92799 6788 ft 257 kts 68°
2026-05-04 00:28 36.01342 -114.90926 6421 ft 261 kts 53°
2026-05-04 00:28 36.02748 -114.89480 6044 ft 268 kts 24°
2026-05-04 00:29 36.04574 -114.89243 5718 ft 266 kts 343°
2026-05-04 00:29 36.06133 -114.90336 5339 ft 255 kts 305°
2026-05-04 00:29 36.06872 -114.92208 5101 ft 235 kts 278°
2026-05-04 00:29 36.07211 -114.94113 4878 ft 220 kts 272°
2026-05-04 00:30 36.07372 -114.95928 4617 ft 206 kts 268°
2026-05-04 00:30 36.07400 -114.97647 4370 ft 194 kts 264°
2026-05-04 00:30 36.07393 -114.99244 4140 ft 182 kts 264°
2026-05-04 00:30 36.07388 -115.00795 3936 ft 175 kts 264°
2026-05-04 00:31 36.07383 -115.02268 3695 ft 170 kts 264°
2026-05-04 00:31 36.07382 -115.03698 3514 ft 167 kts 264°
2026-05-04 00:31 36.07375 -115.05163 3284 ft 173 kts 263°
2026-05-04 00:31 36.07374 -115.06624 3070 ft 163 kts 266°
2026-05-04 00:32 36.07373 -115.07525 2968 ft 150 kts 265°
2026-05-04 00:32 36.07373 -115.07792 2892 ft 149 kts 266°
2026-05-04 00:32 36.07372 -115.09006 2731 ft 137 kts 265°
2026-05-04 00:32 36.07369 -115.10164 2552 ft 132 kts 264°
2026-05-04 00:33 36.07367 -115.11329 2399 ft 141 kts 263°
2026-05-04 00:33 36.07371 -115.13773 2187 ft 121 kts 264°
2026-05-04 00:33 36.07367 -115.14545 2190 ft 59 kts 270°
2026-05-04 00:34 36.07387 -115.14829 2192 ft 22 kts 285°
2026-05-04 00:34 36.07445 -115.14995 2189 ft 16 kts 299°
2026-05-04 00:34 36.07497 -115.15094 2187 ft 10 kts 312°
2026-05-04 00:34 36.07530 -115.15128 2191 ft 2 kts 324°
2026-05-04 00:35 36.07531 -115.15130 2191 ft 0 kts 325°
2026-05-04 00:36 36.07544 -115.15139 2192 ft 6 kts 329°
2026-05-04 00:36 36.07604 -115.15176 2189 ft 13 kts 336°
2026-05-04 00:37 36.07711 -115.15238 2189 ft 20 kts 334°
2026-05-04 00:37 36.07838 -115.15312 2190 ft 20 kts 335°
2026-05-04 00:37 36.07963 -115.15383 2189 ft 19 kts 335°
2026-05-04 00:37 36.08065 -115.15442 2187 ft 14 kts 337°
2026-05-04 00:38 36.08123 -115.15377 2189 ft 14 kts 100°
2026-05-04 00:38 36.08101 -115.15264 2191 ft 13 kts 104°
2026-05-04 00:38 36.08095 -115.15155 2187 ft 13 kts 68°
2026-05-04 00:38 36.08146 -115.15069 2189 ft 12 kts 45°
2026-05-04 00:39 36.08206 -115.14994 2189 ft 11 kts 47°
2026-05-04 00:39 36.08236 -115.14943 2188 ft 11 kts 54°
2026-05-04 00:39 36.08265 -115.14891 2188 ft 5 kts 54°
2026-05-04 00:39 36.08272 -115.14880 2187 ft 0 kts 54°